Hourly Weather Al Jadid

Today, 5 August, Thursday

Time Temperature Precipitation Wind Pressure Humidity
00:00 +35°C° 0 mm 3 mps 759 mmHg 24%
01:00 +34°C° 0 mm 3 mps 758 mmHg 26%
02:00 +34°C° 0 mm 3 mps 758 mmHg 27%
03:00 +33°C° 0 mm 3 mps 758 mmHg 27%
04:00 +32°C° 0 mm 2 mps 758 mmHg 27%
05:00 +32°C° 0 mm 2 mps 758 mmHg 26%
06:00 +34°C° 0 mm 2 mps 758 mmHg 25%
07:00 +34°C° 0 mm 1 mps 759 mmHg 24%
08:00 +36°C° 0 mm 1 mps 759 mmHg 21%
09:00 +37°C° 0 mm 1 mps 759 mmHg 19%
10:00 +40°C° 0 mm 1 mps 759 mmHg 17%
11:00 +41°C° 0 mm 2 mps 758 mmHg 18%
12:00 +42°C° 0 mm 4 mps 758 mmHg 18%
13:00 +43°C° 0 mm 5 mps 758 mmHg 19%
14:00 +42°C° 0 mm 6 mps 757 mmHg 23%
15:00 +41°C° 0 mm 7 mps 757 mmHg 27%
16:00 +40°C° 0 mm 8 mps 757 mmHg 32%
17:00 +39°C° 0 mm 8 mps 757 mmHg 35%
18:00 +37°C° 0 mm 8 mps 756 mmHg 39%
19:00 +35°C° 0 mm 8 mps 756 mmHg 42%
20:00 +35°C° 0 mm 8 mps 757 mmHg 40%
21:00 +35°C° 0 mm 7 mps 757 mmHg 37%
22:00 +35°C° 0 mm 7 mps 757 mmHg 34%
23:00 +34°C° 0 mm 6 mps 757 mmHg 36%

Tomorrow, 6 August, Friday

Time Temperature Precipitation Wind Pressure Humidity
00:00 +33°C° 0 mm 5 mps 757 mmHg 39%
01:00 +33°C° 0 mm 4 mps 757 mmHg 41%
02:00 +33°C° 0 mm 4 mps 757 mmHg 38%
03:00 +31°C° 0 mm 3 mps 756 mmHg 36%
04:00 +31°C° 0 mm 3 mps 756 mmHg 34%
05:00 +32°C° 0 mm 2 mps 756 mmHg 30%
06:00 +33°C° 0 mm 1 mps 757 mmHg 27%
07:00 +32°C° 0 mm 0 mps 757 mmHg 24%
08:00 +36°C° 0 mm 1 mps 757 mmHg 21%
09:00 +39°C° 0 mm 1 mps 757 mmHg 18%
10:00 +41°C° 0 mm 2 mps 757 mmHg 15%
11:00 +42°C° 0 mm 4 mps 757 mmHg 17%
12:00 +42°C° 0 mm 5 mps 757 mmHg 19%
13:00 +44°C° 0 mm 7 mps 756 mmHg 21%
14:00 +43°C° 0 mm 7 mps 756 mmHg 23%
15:00 +41°C° 0 mm 7 mps 756 mmHg 25%
16:00 +40°C° 0 mm 7 mps 756 mmHg 27%
17:00 +39°C° 0 mm 6 mps 756 mmHg 30%
18:00 +36°C° 0 mm 5 mps 756 mmHg 33%
19:00 +35°C° 0 mm 4 mps 756 mmHg 36%
20:00 +35°C° 0 mm 4 mps 756 mmHg 33%
21:00 +35°C° 0 mm 4 mps 756 mmHg 31%
22:00 +35°C° 0 mm 3 mps 756 mmHg 28%
23:00 +34°C° 0 mm 2 mps 756 mmHg 27%

Day after tomorrow, 7 August, Saturday

Time Temperature Precipitation Wind Pressure Humidity
00:00 +32°C° 0 mm 1 mps 755 mmHg 27%
01:00 +29°C° 0 mm 0 mps 755 mmHg 26%
02:00 +31°C° 0 mm 1 mps 755 mmHg 34%
03:00 +30°C° 0 mm 3 mps 755 mmHg 42%
04:00 +30°C° 0 mm 4 mps 755 mmHg 49%
05:00 +30°C° 0 mm 3 mps 756 mmHg 46%
06:00 +31°C° 0 mm 3 mps 756 mmHg 43%
07:00 +32°C° 0 mm 2 mps 756 mmHg 40%
08:00 +35°C° 0 mm 3 mps 756 mmHg 35%
09:00 +36°C° 0 mm 3 mps 756 mmHg 30%
10:00 +38°C° 0 mm 3 mps 757 mmHg 25%
11:00 +40°C° 0 mm 4 mps 756 mmHg 24%
12:00 +40°C° 0 mm 5 mps 756 mmHg 24%
13:00 +41°C° 0 mm 6 mps 756 mmHg 24%
14:00 +40°C° 0 mm 6 mps 756 mmHg 28%
15:00 +39°C° 0 mm 7 mps 756 mmHg 32%
16:00 +38°C° 0 mm 7 mps 756 mmHg 36%
17:00 +35°C° 0 mm 7 mps 756 mmHg 40%
18:00 +34°C° 0 mm 7 mps 756 mmHg 44%
19:00 +33°C° 0 mm 7 mps 756 mmHg 48%
20:00 +33°C° 0 mm 6 mps 756 mmHg 45%
21:00 +33°C° 0 mm 6 mps 757 mmHg 41%
22:00 +33°C° 0 mm 5 mps 757 mmHg 38%
23:00 +32°C° 0 mm 5 mps 757 mmHg 41%

8 August, Sunday

Time Temperature Precipitation Wind Pressure Humidity
00:00 +30°C° 0 mm 4 mps 757 mmHg 44%
01:00 +29°C° 0 mm 4 mps 757 mmHg 47%
02:00 +29°C° 0 mm 4 mps 757 mmHg 49%
03:00 +28°C° 0 mm 4 mps 757 mmHg 51%
04:00 +28°C° 0 mm 4 mps 757 mmHg 53%
05:00 +28°C° 0 mm 4 mps 757 mmHg 51%
06:00 +29°C° 0 mm 3 mps 758 mmHg 50%
07:00 +29°C° 0 mm 3 mps 758 mmHg 49%
08:00 +31°C° 0 mm 3 mps 758 mmHg 43%
09:00 +34°C° 0 mm 2 mps 759 mmHg 37%
10:00 +34°C° 0 mm 1 mps 759 mmHg 31%
11:00 +36°C° 0 mm 3 mps 759 mmHg 30%
12:00 +37°C° 0 mm 4 mps 758 mmHg 28%
13:00 +39°C° 0 mm 5 mps 758 mmHg 27%
14:00 +38°C° 0 mm 6 mps 758 mmHg 33%
15:00 +36°C° 0 mm 6 mps 758 mmHg 39%
16:00 +36°C° 0 mm 7 mps 758 mmHg 44%
17:00 +34°C° 0 mm 7 mps 758 mmHg 52%
18:00 +33°C° 0 mm 7 mps 758 mmHg 59%
19:00 +32°C° 0 mm 7 mps 758 mmHg 66%
20:00 +32°C° 0 mm 6 mps 758 mmHg 57%
21:00 +33°C° 0 mm 6 mps 759 mmHg 47%
22:00 +33°C° 0 mm 5 mps 759 mmHg 38%
23:00 +33°C° 0 mm 5 mps 759 mmHg 39%

9 August, Monday

Time Temperature Precipitation Wind Pressure Humidity
00:00 +32°C° 0 mm 5 mps 759 mmHg 41%
01:00 +30°C° 0 mm 4 mps 759 mmHg 42%
02:00 +29°C° 0 mm 4 mps 759 mmHg 43%
03:00 +29°C° 0 mm 4 mps 759 mmHg 45%
04:00 +28°C° 0 mm 4 mps 759 mmHg 46%
05:00 +29°C° 0 mm 4 mps 759 mmHg 42%
06:00 +30°C° 0 mm 4 mps 760 mmHg 38%
07:00 +30°C° 0 mm 4 mps 760 mmHg 34%
08:00 +34°C° 0 mm 4 mps 760 mmHg 30%
09:00 +36°C° 0 mm 5 mps 760 mmHg 26%
10:00 +39°C° 0 mm 5 mps 760 mmHg 22%
11:00 +40°C° 0 mm 5 mps 760 mmHg 22%
12:00 +40°C° 0 mm 6 mps 760 mmHg 23%
13:00 +41°C° 0 mm 6 mps 760 mmHg 24%
14:00 +40°C° 0 mm 8 mps 760 mmHg 29%
15:00 +39°C° 0 mm 9 mps 759 mmHg 33%
16:00 +38°C° 0 mm 10 mps 759 mmHg 38%
17:00 +37°C° 0 mm 10 mps 759 mmHg 40%
18:00 +35°C° 0 mm 9 mps 759 mmHg 42%
19:00 +35°C° 0 mm 9 mps 759 mmHg 44%
20:00 +34°C° 0 mm 8 mps 760 mmHg 44%
21:00 +33°C° 0 mm 7 mps 760 mmHg 45%
22:00 +33°C° 0 mm 6 mps 760 mmHg 45%
23:00 +32°C° 0 mm 5 mps 760 mmHg 47%

10 August, Tuesday

Time Temperature Precipitation Wind Pressure Humidity
00:00 +30°C° 0 mm 4 mps 760 mmHg 50%
01:00 +30°C° 0 mm 4 mps 760 mmHg 53%
02:00 +29°C° 0 mm 3 mps 760 mmHg 52%
03:00 +29°C° 0 mm 3 mps 760 mmHg 52%
04:00 +29°C° 0 mm 3 mps 759 mmHg 52%
05:00 +30°C° 0 mm 3 mps 760 mmHg 49%
06:00 +30°C° 0 mm 3 mps 760 mmHg 46%
07:00 +31°C° 0 mm 2 mps 760 mmHg 43%
08:00 +34°C° 0 mm 3 mps 760 mmHg 40%
09:00 +35°C° 0 mm 4 mps 760 mmHg 38%
10:00 +37°C° 0 mm 5 mps 760 mmHg 35%
11:00 +38°C° 0 mm 6 mps 760 mmHg 36%
12:00 +38°C° 0 mm 7 mps 759 mmHg 36%
13:00 +38°C° 0 mm 8 mps 759 mmHg 37%
14:00 +37°C° 0 mm 8 mps 759 mmHg 39%
15:00 +37°C° 0 mm 8 mps 758 mmHg 41%
16:00 +35°C° 0 mm 7 mps 758 mmHg 43%
17:00 +34°C° 0 mm 7 mps 758 mmHg 50%
18:00 +33°C° 0 mm 7 mps 758 mmHg 57%
19:00 +30°C° 0 mm 6 mps 758 mmHg 64%
20:00 +30°C° 0 mm 6 mps 758 mmHg 69%
21:00 +29°C° 0 mm 6 mps 758 mmHg 74%
22:00 +29°C° 0 mm 6 mps 758 mmHg 80%
23:00 +29°C° 0 mm 5 mps 758 mmHg 83%
Show more